Miscellaneous Local Product
Issued by NWS North Platte, NE

Home | Current Version | Previous Version | Graphics & Text | Print | Product List | Glossary On
Versions: 1 2 3 4 5 6 7 8 9 10 11 12 13 14 15 16 17 18 19 20 21 22 23 24 25 26 27 28 29 30 31 32 33 34 35 36 37 38 39 40 41 42 43 44 45 46 47 48 49 50
000
AXUS43 KLBF 151410
MISLBF


WESTERN AND NORTH CENTRAL NEBRASKA HOURLY WEATHER ROUNDUP
NATIONAL WEATHER SERVICE NORTH PLATTE NE
900 AM CDT MON SEP 15 2014

***STATIONS NOT REPORTING VARIABLES SUCH AS SKY/WEATHER OR
PRESSURE ARE PROVIDED BY THE NEBRASKA DEPARTMENT OF
ROADS...RAWS...AND APRS NETWORKS...AND ARE NOT UNDER
NATIONAL WEATHER SERVICE QUALITY CONTROL***

...OBSERVATIONS IN AND NEAR THE EASTERN PANHANDLE OF NEBRASKA...

CITY           SKY/WX    TMP DP  RH WIND       PRES   REMARKS
PINE RIDGE     SUNNY     36  34  92 CALM      30.32R
CHADRON        SUNNY     38  36  92 W3        30.32S
ALLIANCE       SUNNY     40  37  89 NW3       30.31S
SIDNEY         CLOUDY    44  40  85 NW8       30.33R
WHITECLAY        N/A     36  33  88 CALM        N/A
RUSHVILLE        N/A     38  36  94 W7          N/A  WCI  32
CRESCENT LAKE    N/A     45  41  87 N6          N/A
LISCO            N/A     43  37  79 SW6         N/A
BIG SPRINGS      N/A     51  46  82 N3          N/A
$$

...OBSERVATIONS IN NORTH CENTRAL NEBRASKA...

CITY           SKY/WX    TMP DP  RH WIND       PRES   REMARKS
VALENTINE      SUNNY     50  40  68 N7        30.30R
THEDFORD       SUNNY     49  41  74 N8        30.29S
AINSWORTH      SUNNY     46  41  84 CALM      30.29S
O`NEILL        SUNNY     50  46  87 N7        30.28R
ORD            MOSUNNY   51  44  77 N9        30.24S
BROKEN BOW     MOSUNNY   52  41  66 NE15G21   30.25R
SPRINGVIEW       N/A     49  43  80 CALM        N/A
ROSE             N/A     49  44  83 N12         N/A
NEWPORT          N/A     49  43  81 SW5         N/A
COMSTOCK         N/A     52  47  83 NE10        N/A
CHAMBERS         N/A     52  44  75 NE3         N/A
$$

...OBSERVATIONS IN SOUTHWEST NEBRASKA AND FAR NORTHEAST COLORADO...

CITY           SKY/WX    TMP DP  RH WIND       PRES   REMARKS
WRAY           CLOUDY   N/A N/A N/A N13G20    30.29R
HOLYOKE        CLOUDY    54  48  82 N8        30.30R
IMPERIAL       CLOUDY    52  44  74 N15       30.28R
OGALLALA       SUNNY     50  40  68 NE10      30.31R
NORTH PLATTE   MOSUNNY   50  40  68 NE10      30.27R
MCCOOK         CLOUDY    53  46  77 N10       30.25R
LEXINGTON      MOSUNNY   51  47  86 N15G21    30.24R
PAXTON           N/A     49  43  81 N7          N/A
SUTHERLAND       N/A     45  34  65 NE7         N/A
BRADY            N/A     50  42  72 NW3         N/A
GOTHENBURG       N/A     50  43  78 N12         N/A
CALLAWAY         N/A     48  44  85 N9          N/A
$$

...SOME WEATHER OBSERVATIONS FROM AROUND THE REGION...

CITY           SKY/WX    TMP DP  RH WIND       PRES   REMARKS
DENVER         MOSUNNY   48  44  86 NE5       30.36R
LARAMIE        SUNNY     39  37  92 S5        30.37S
CHEYENNE       SUNNY     45  37  73 W8        30.35R
SCOTTSBLUFF    SUNNY     41  39  93 NW6       30.33R
RAPID CITY     SUNNY     42  39  89 CALM      30.30R
PIERRE         SUNNY     47  43  86 CALM      30.29R
WINNER         FAIR      51  44  77 CALM      30.30R
SIOUX FALLS    MOSUNNY   51  47  86 N6        30.24S
OMAHA          CLOUDY    55  49  80 N20       30.15R
GRAND ISLAND   CLOUDY    52  46  80 NE12      30.22R
KANSAS CITY    PTSUNNY   66  63  90 SW9       30.05F
WICHITA        MOSUNNY   71  63  75 SW13      30.09R
HAYS           CLOUDY    57  54  88 N15       30.13R
LIBERAL        SUNNY     64  57  77 SW13      30.13R
GOODLAND       CLOUDY    53  52  96 N16       30.26R
$$



USA.gov is the U.S. government's official web portal to all federal, state and local government web resources and services.